This is the latest recevied weather packets stored in our database for station/object N9BSW. If no packets are shown the sender has not sent any weather packets the latest 10 day(s).
| Time | Temp. | Humidity | Pressure | Rain* | Wind** | Luminosity | Snow |
|---|---|---|---|---|---|---|---|
| 1777907375 | 19.44° C | 60% | 1007.7 hPa | 0 mm | - | 399 W/m² | - |
| 1777907072 | 19.44° C | 58% | 1007.8 hPa | 0 mm | - | 279 W/m² | - |
| 1777906770 | 19.44° C | 58% | 1007.7 hPa | 0 mm | - | 285 W/m² | - |
| 1777906466 | 19.44° C | 59% | 1007.7 hPa | 0 mm | - | 289 W/m² | - |
| 1777906163 | 19.44° C | 58% | 1007.6 hPa | 0 mm | - | 266 W/m² | - |
| 1777905860 | 19.44° C | 58% | 1008 hPa | 0 mm | - | 314 W/m² | - |
| 1777905556 | 19.44° C | 59% | 1007.8 hPa | 0 mm | - | 338 W/m² | - |
| 1777905254 | 19.44° C | 58% | 1007.9 hPa | 0 mm | - | 327 W/m² | - |
| 1777904950 | 19.44° C | 60% | 1008 hPa | 0 mm | - | 313 W/m² | - |
| 1777904648 | 19.44° C | 59% | 1007.9 hPa | 0 mm | - | 369 W/m² | - |
| 1777904345 | 19.44° C | 60% | 1007.9 hPa | 0 mm | - | 374 W/m² | - |
| 1777904042 | 18.89° C | 62% | 1008 hPa | 0 mm | - | 462 W/m² | - |
| 1777903738 | 18.33° C | 62% | 1008.1 hPa | 0 mm | - | 462 W/m² | - |
| 1777903434 | 18.33° C | 63% | 1008.2 hPa | 0 mm | - | 440 W/m² | - |
| 1777903131 | 17.78° C | 64% | 1008 hPa | 0 mm | - | 384 W/m² | - |
| 1777902827 | 17.22° C | 65% | 1008.2 hPa | 0 mm | - | 322 W/m² | - |
| 1777902525 | 17.22° C | 66% | 1008.1 hPa | 0 mm | - | 214 W/m² | - |
| 1777902222 | 16.67° C | 66% | 1008.3 hPa | 0 mm | - | 224 W/m² | - |
| 1777901920 | 16.67° C | 67% | 1008.4 hPa | 0 mm | - | 192 W/m² | - |
| 1777901618 | 16.67° C | 66% | 1008.4 hPa | 0 mm | - | 202 W/m² | - |
| 1777901315 | 16.67° C | 66% | 1008.4 hPa | 0 mm | - | 181 W/m² | - |
| 1777901012 | 16.67° C | 66% | 1008.4 hPa | 0 mm | - | 186 W/m² | - |
| 1777900709 | 17.22° C | 64% | 1008.3 hPa | 0 mm | - | 173 W/m² | - |
| 1777900406 | 17.22° C | 65% | 1008.3 hPa | 0 mm | - | 247 W/m² | - |
| 1777900103 | 17.22° C | 64% | 1008.1 hPa | 0 mm | - | 349 W/m² | - |
* Rain latest hour (hover to see other rain measurements)
** Current wind speed in m/s (hover to see current wind gust speed)